Regional Weather Roundup
Issued by NWS Sioux Falls, SD

Home | Current Version | Previous Version | Text Only | Print | Product List | Glossary On
Versions: 1 2 3 4 5 6 7 8 9 10 11 12 13 14 15 16 17 18 19 20 21 22 23 24 25 26 27 28 29 30 31 32 33 34 35 36 37 38 39 40 41 42 43 44 45 46 47 48 49 50
000
ASUS43 KFSD 250602
RWRFSD

WEATHER ROUNDUP FOR SE SOUTH DAKOTA/SW MINNESOTA/NW IOWA
NATIONAL WEATHER SERVICE SIOUX FALLS SD
100 AM CDT THU MAY 25 2017

NOTE: "FAIR" INDICATES FEW OR NO CLOUDS BELOW 12,000 FEET WITH NO
SIGNIFICANT WEATHER AND OR OBSTRUCTIONS TO VISIBILITY.


SDZ038>040-050-052>070-250700-
SOUTHEAST SOUTH DAKOTA

CITY           SKY/WX    TMP DP  RH WIND       PRES   REMARKS
BROOKINGS      CLEAR     49  44  83 SE14      29.62F
CHAMBERLAIN    NOT AVBL
HURON          CLEAR     52  45  77 SE13      29.55R
6HR MIN TEMP:  52; 6HR MAX TEMP:  64;

MITCHELL       CLEAR     54  45  71 SE20      29.56F
6HR MIN TEMP:  54; 6HR MAX TEMP:  66;

SIOUX FALLS    CLEAR     52  45  77 SE12      29.63F
6HR MIN TEMP:  52; 6HR MAX TEMP:  63;

WINNER         FAIR      58  44  60 S23G32    29.43F
YANKTON        CLEAR     53  43  68 SE9       29.61F
$$

MNZ071-072-080-081-089-090-097-098-250700-
SOUTHWEST MINNESOTA

CITY           SKY/WX    TMP DP  RH WIND       PRES   REMARKS
FAIRMONT       CLEAR     50  47  89 CALM      29.70S
MARSHALL       CLEAR     50  47  89 SE8       29.67F
6HR MIN TEMP:  50; 6HR MAX TEMP:  59;

REDWOOD FALLS  CLEAR     49  44  83 SE6       29.68F
WORTHINGTON    CLEAR     46  43  89 SE7       29.68F
$$

IAZ001>003-012>014-020>022-031-032-NEZ013-014-SDZ071-250700-
NORTHWEST IOWA

CITY           SKY/WX    TMP DP  RH WIND       PRES   REMARKS
DENISON        CLEAR     50  46  87 SE6       29.69F
ESTHERVILLE    CLEAR     47  47 100 E3        29.69S
LE MARS        CLEAR     52  45  76 SE6       29.66F
ORANGE CITY    CLEAR     48  45  87 SE3       29.67S
SHELDON        CLEAR     48  45  87 SE9       29.66S
SIOUX CITY     CLEAR     47  45  93 SE8       29.66S
6HR MIN TEMP:  47; 6HR MAX TEMP:  64;

SPENCER        CLEAR     47  44  90 E7        29.68F
6HR MIN TEMP:  47; 6HR MAX TEMP:  63;

STORM LAKE     CLEAR     50  46  87 SE8       29.68F
$$

ABBREVIATIONS USED IN REMARKS
   TC - TEMPERATURE IN CELSIUS
  WCI - WIND CHILL INDEX
   HX - HEAT INDEX
  VSB - VISIBILITY





USA.gov is the U.S. government's official web portal to all federal, state and local government web resources and services.